Location: Bougoura
(13.1861°N, 5.0773°W)
Time: 10:16:59
(UTC+00:00)

Okean O Rocket - Pass Details

Date: 17 January 2021
Orbit: 622 x 645 km, 98.2° (Epoch: 25 February)

Event Time Altitude Azimuth Distance (km) Brightness Sun altitude
Rises 06:15:33 0° 20° (NNE) 2,900 5.0 -8.0°
Reaches altitude 10° 06:17:47 10° 25° (NNE) 1,990 4.2 -7.5°
Maximum altitude 06:22:00 50° 101° (ESE) 789 2.7 -6.6°
Drops below altitude 10° 06:26:10 10° 177° (S) 1,983 4.5 -5.6°
Sets 06:28:24 0° 182° (S) 2,888 5.2 -5.1°
